Flag Weather past 2 weeks in Harrisburg, Pennsylvania, U.S.A.

Now
35 °F

Overcast.


Feels Like: 31 °F
Forecast: 30 / 38 °F
Wind: 5 mph from West

Location: Capital City Airport

Current Time: Nov 27, 2014 at 6:26:23 PM

Latest Report: Nov 27, 2014 at 5:56 PM


Visibility: 10 mi

Pressure: 30.10 "Hg

Humidity: 82%

Dew point: 30 °F

Location of HarrisburgLocation

Historic Weather in Harrisburg — Graph

°F

Harrisburg temperature yesterday

Maximum temperature yesterday: 44 °F (at 3:56 AM)
Minimum temperature yesterday: 33 °F (at 9:56 AM)
Average temperature yesterday: 37 °F

Past Weeks' High & Low Weather Summary

 TemperatureHumidityPressure
High70 °F (Nov 24, 12:56 PM)97% (Nov 17, 6:56 AM)30.54 "Hg (Nov 17, 6:56 AM)
Low17 °F (Nov 22, 4:56 AM)31% (Nov 18, 2:56 PM)29.52 "Hg (Nov 24, 12:56 PM)
Average37 °F60%30.10 "Hg
* Reported Nov 12 4:56 PM — Nov 27 4:56 PM, Harrisburg, Weather by CustomWeather, © 2014

Note: Actual official high and low records may vary slightly from our data, if they occured in-between our weather recording intervals... More about our weather records

Advertising

Harrisburg weather history for previous 24 hours

 ConditionsComfort  
Time TempWeatherWind HumidityBarometerVisibility
4:56 PM
Nov 27
37 °FLight snow. Overcast.8 mph76%30.09 "Hg7 mi
3:56 PM37 °FOvercast.3 mph70%30.07 "Hg10 mi
2:56 PM37 °FPartly sunny.3 mph67%30.07 "Hg10 mi
1:56 PM37 °FMostly cloudy.6 mph67%30.06 "Hg10 mi
12:56 PM36 °FMostly cloudy.7 mph73%30.05 "Hg10 mi
11:56 AM37 °FOvercast.9 mph67%30.06 "Hg10 mi
10:56 AM37 °FMostly cloudy.6 mph70%30.06 "Hg10 mi
9:56 AM36 °FOvercast.6 mph75%30.06 "Hg10 mi
8:56 AM34 °FOvercast.3 mph82%30.06 "Hg10 mi
7:56 AM33 °FOvercast.7 mph85%30.05 "Hg10 mi
6:56 AM33 °FPassing clouds.5 mph82%30.03 "Hg10 mi
5:56 AM34 °FOvercast.6 mph79%30.01 "Hg10 mi
4:56 AM34 °FPassing clouds.5 mph82%30.00 "Hg10 mi
3:56 AM34 °FOvercast.3 mph82%30.00 "Hg10 mi
2:56 AM35 °FOvercast.9 mph78%30.01 "Hg10 mi
1:56 AM35 °FMostly cloudy.9 mph78%30.00 "Hg10 mi
12:56 AM35 °FOvercast.9 mph82%29.99 "Hg10 mi
11:56 PM
Nov 26
35 °FMostly cloudy.7 mph78%29.98 "Hg10 mi
10:56 PM35 °FOvercast.9 mph78%29.98 "Hg10 mi
9:56 PM36 °FOvercast.8 mph79%29.96 "Hg10 mi
8:56 PM36 °FOvercast.8 mph79%29.95 "Hg10 mi
7:56 PM35 °FOvercast.10 mph85%29.96 "Hg10 mi
6:56 PM35 °FLight rain. Mostly cloudy.9 mph85%29.96 "Hg10 mi
Weather by CustomWeather, © 2014

See weather overviewHow to use our weather pages